Date String (YYYY-MM-DD hh:mm:ss) UTC,Instrument flags,Ambient pressure (hPa),Sample flow (lpm),Bypass flow (lpm),Sample temperature (°C),Ambient temperature (°C),ASC tube jacket temperature (°C),LED temperature (°C),Box temperature (°C),Sample RH (%),Span deviation,Mass concentration (μg/m³),Mass concentration (μg/m³),Mass concentration (μg/m³)
DateTimeUTC,F1_M11,P_M11,Q1_M11,Q2_M11,T1_M11,T2_M11,T3_M11,T4_M11,T5_M11,U1_M11,ZSPAN_M11,X0_M11,X2_M11,X1_M11
2022-12-20 16:00:00,,0830.0,5.02,0.00,21.2,19.0,00.0,30.2,22.7,06.9,0004.0,0014.59,0007.73,0006.89
2022-12-20 16:01:00,,0830.1,5.01,0.00,21.1,19.7,00.0,30.1,22.7,07.0,0004.4,0014.56,0007.78,0006.93
2022-12-20 16:02:00,,0830.1,4.99,0.00,21.3,21.0,00.0,30.1,23.1,06.9,0003.3,0013.95,0007.77,0006.92
2022-12-20 16:03:00,,0830.1,4.99,0.00,21.4,21.6,00.0,30.1,23.3,06.9,0004.4,0013.91,0007.74,0006.90
2022-12-20 16:04:00,,0830.1,4.98,0.00,21.4,21.0,00.0,30.2,23.2,07.0,0003.9,0013.61,0007.63,0006.85
2022-12-20 16:05:00,,0830.2,5.03,0.00,21.3,20.4,00.0,30.2,23.0,07.0,0000.0,0012.91,0007.18,0006.47
2022-12-20 16:06:00,,0830.2,4.97,0.00,21.3,19.9,00.0,30.2,22.8,07.0,0000.0,0012.42,0006.62,0005.97
2022-12-20 16:07:00,,0830.3,5.01,0.00,21.2,19.5,00.0,30.2,22.7,07.0,0000.0,0011.93,0006.20,0005.58
2022-12-20 16:08:00,,0830.3,5.02,0.00,21.1,19.2,00.0,30.1,22.5,07.0,0000.0,0010.60,0005.97,0005.39
2022-12-20 16:09:00,,0830.4,4.97,0.00,21.0,18.9,00.0,30.1,22.5,06.9,0000.0,0009.92,0005.93,0005.35
2022-12-20 16:10:00,,0830.4,5.04,0.00,21.0,19.5,00.0,30.1,22.6,06.9,0000.0,0009.78,0005.86,0005.30
2022-12-20 16:11:00,,0830.4,4.98,0.00,21.1,20.9,00.0,30.0,22.9,06.9,0000.0,0009.89,0005.81,0005.29
2022-12-20 16:12:00,,0830.3,4.99,0.00,21.3,21.6,00.0,30.0,23.1,06.9,0000.0,0010.39,0005.80,0005.27
2022-12-20 16:13:00,,0830.3,5.04,0.00,21.3,21.0,00.0,30.1,23.1,07.0,0003.4,0010.61,0005.85,0005.27
2022-12-20 16:14:00,,0830.2,4.97,0.00,21.2,20.3,00.0,30.1,22.9,07.1,0004.3,0010.75,0005.91,0005.32
2022-12-20 16:15:00,,0830.2,4.98,0.00,21.2,19.9,00.0,30.1,22.8,07.1,0004.4,0011.08,0005.96,0005.32
2022-12-20 16:16:00,,0830.2,4.96,0.00,21.1,19.6,00.0,30.1,22.7,07.1,0004.4,0011.28,0005.97,0005.32
2022-12-20 16:17:00,,0830.2,5.02,0.00,21.1,19.3,00.0,30.1,22.6,07.2,0004.7,0011.56,0005.99,0005.32
2022-12-20 16:18:00,,0830.2,4.96,0.00,21.0,19.2,00.0,30.1,22.6,07.3,0005.4,0011.50,0006.03,0005.32
2022-12-20 16:19:00,,0830.2,5.03,0.00,21.0,19.0,00.0,30.1,22.5,07.3,0004.9,0011.42,0006.03,0005.30
2022-12-20 16:20:00,,0830.2,5.03,0.00,20.9,19.4,00.0,30.0,22.5,07.2,0005.1,0011.80,0006.02,0005.28
2022-12-20 16:21:00,,0830.3,4.98,0.00,21.1,21.0,00.0,30.0,22.9,07.5,0005.0,0011.94,0006.10,0005.33
2022-12-20 16:22:00,,0830.3,5.00,0.00,21.2,21.9,00.0,30.0,23.2,07.3,0003.5,0012.06,0006.17,0005.38
2022-12-20 16:23:00,,0830.3,4.99,0.00,21.3,21.3,00.0,30.0,23.2,07.5,0004.0,0012.19,0006.25,0005.44
2022-12-20 16:24:00,,0830.3,5.02,0.00,21.3,20.7,00.0,30.1,23.0,07.3,0002.8,0011.97,0006.30,0005.47
2022-12-20 16:25:00,,0830.2,5.00,0.00,21.2,20.3,00.0,30.1,22.8,07.5,0001.2,0012.17,0006.32,0005.49
2022-12-20 16:26:00,,0830.2,5.01,0.00,21.2,19.9,00.0,30.1,22.8,07.4,0001.1,0012.64,0006.33,0005.50
2022-12-20 16:27:00,,0830.2,4.99,0.00,21.1,19.7,00.0,30.1,22.7,07.2,-000.0,0012.44,0006.31,0005.49
2022-12-20 16:28:00,,0830.2,5.03,0.00,21.1,19.5,00.0,30.1,22.7,07.1,-000.2,0011.94,0006.27,0005.45
2022-12-20 16:29:00,,0830.1,4.95,0.00,21.1,19.4,00.0,30.1,22.6,07.1,-001.4,0012.15,0006.20,0005.40
2022-12-20 16:30:00,,0830.1,5.02,0.00,21.0,19.4,00.0,30.1,22.6,07.0,-001.2,0012.48,0006.15,0005.35
2022-12-20 16:31:00,,0830.1,5.00,0.00,21.0,19.4,00.0,30.0,22.6,06.9,-000.9,0012.01,0006.05,0005.26
2022-12-20 16:32:00,,0830.1,4.98,0.00,21.0,19.4,00.0,30.0,22.6,07.1,-000.9,0012.36,0005.89,0005.13
2022-12-20 16:33:00,,0830.1,5.03,0.00,21.0,19.6,00.0,30.0,22.7,06.8,-001.2,0012.42,0005.77,0005.01
2022-12-20 16:34:00,,0830.1,4.98,0.00,21.1,20.9,00.0,30.0,23.0,06.6,-000.8,0012.50,0005.62,0004.85
2022-12-20 16:35:00,,0830.1,5.00,0.00,21.3,21.6,00.0,30.0,23.2,06.7,-000.2,0012.08,0005.47,0004.72
2022-12-20 16:36:00,,0830.1,5.03,0.00,21.3,21.1,00.0,30.0,23.1,06.6,-000.3,0012.21,0005.30,0004.57
2022-12-20 16:37:00,,0830.2,4.98,0.00,21.3,20.7,00.0,30.1,23.0,06.7,0000.0,0011.32,0005.08,0004.40
2022-12-20 16:38:00,,0830.2,4.97,0.00,21.3,20.3,00.0,30.1,22.9,06.6,0000.0,0011.13,0004.94,0004.28
2022-12-20 16:39:00,,0830.3,5.03,0.00,21.2,20.0,00.0,30.1,22.8,06.4,0000.0,0010.93,0004.78,0004.15
2022-12-20 16:40:00,,0830.3,5.00,0.00,21.2,19.8,00.0,30.1,22.8,06.4,0000.0,0010.64,0004.59,0004.00
2022-12-20 16:41:00,,0830.4,4.99,0.00,21.2,19.7,00.0,30.1,22.8,06.5,0000.0,0009.82,0004.42,0003.85
2022-12-20 16:42:00,,0830.4,5.03,0.00,21.2,19.7,00.0,30.1,22.8,06.6,0000.0,0009.63,0004.31,0003.77
2022-12-20 16:43:00,,0830.4,4.96,0.00,21.2,19.8,00.0,30.1,22.8,06.6,0000.0,0009.26,0004.27,0003.70
2022-12-20 16:44:00,,0830.3,5.03,0.00,21.2,19.8,00.0,30.1,22.9,06.7,0000.0,0008.91,0004.23,0003.65
2022-12-20 16:45:00,,0830.2,4.96,0.00,21.2,19.8,00.0,30.1,22.8,06.6,0000.0,0008.50,0004.16,0003.62
2022-12-20 16:46:00,,0830.2,5.04,0.00,21.2,19.8,00.0,30.1,22.9,06.5,0000.0,0008.33,0004.10,0003.57
2022-12-20 16:47:00,,0830.1,4.99,0.00,21.2,19.8,00.0,30.1,22.8,06.5,0000.0,0008.55,0004.04,0003.53
2022-12-20 16:48:00,,0830.2,5.02,0.00,21.2,19.8,00.0,30.1,22.8,06.6,0000.0,0009.14,0004.01,0003.49
2022-12-20 16:49:00,,0830.2,5.02,0.00,21.2,19.8,00.0,30.1,22.8,06.5,0000.0,0009.21,0003.99,0003.45
2022-12-20 16:50:00,,0830.2,4.99,0.00,21.2,19.8,00.0,30.1,22.8,06.8,0000.0,0009.28,0003.99,0003.44
2022-12-20 16:51:00,,0830.2,5.02,0.00,21.2,19.8,00.0,30.1,22.8,06.6,0000.0,0009.22,0003.96,0003.44
2022-12-20 16:52:00,,0830.2,4.97,0.00,21.2,19.8,00.0,30.1,22.8,06.6,0000.0,0009.26,0003.95,0003.43
2022-12-20 16:53:00,,0830.1,5.03,0.00,21.2,19.8,00.0,30.1,22.8,06.4,0000.0,0009.22,0003.91,0003.40
2022-12-20 16:54:00,,0830.1,4.96,0.00,21.2,19.8,00.0,30.0,22.8,06.4,0000.0,0009.16,0003.85,0003.36
2022-12-20 16:55:00,,0830.1,5.02,0.00,21.2,19.9,00.0,30.0,22.9,06.5,0000.0,0009.01,0003.80,0003.31
2022-12-20 16:56:00,,0830.1,4.96,0.00,21.2,19.9,00.0,30.0,22.9,06.5,0000.0,0008.86,0003.75,0003.29
2022-12-20 16:57:00,,0830.1,5.04,0.00,21.2,20.0,00.0,30.0,22.9,06.4,0000.0,0008.79,0003.70,0003.26
2022-12-20 16:58:00,,0830.1,4.96,0.00,21.2,20.0,00.0,30.0,22.9,06.5,0000.0,0007.96,0003.67,0003.25
2022-12-20 16:59:00,,0830.2,5.03,0.00,21.2,19.9,00.0,30.0,22.9,06.6,0000.0,0006.81,0003.63,0003.24
